Погода в Елизаветинке

Россия / Оренбургская область     51°45′58″N   59°44′30″E
темп.,
°C
ветер,
м/с
пор.,
м/с
влажн.,
%
обл.,
%
осадки,
мм/ч
давл.,
гПа
погр.,
м
23 апреля, пт
пт2323:00+7ююв4957100 0.0 1033178
02:00+6ю4967100 0.4 1033309
05:00+6ююв3769100 0.4 1033164
08:00+9юв51061100 0.0 1032391
11:00+12ююв7948100 0.0 1031869
14:00+13ю6747100 0.0 10301758
17:00+10ююз5570100 0.4 10301023
20:00+8вюв51083100 2.2 1028913
24 апреля, сб
сб2423:00+8вюв81576100 2.3 1026502
02:00+8юв81561100 0.0 1024605
05:00+7юв61467100 0.0 1022570
08:00+7юв61162100 0.1 10211051
11:00+5юв91381100 1.1 1019824
14:00+7юв81268100 1.7 10171325
17:00+10вюв51054100 1.7 1013258
20:00+8юз5989100 0.1 1014329
25 апреля, вс
вс2523:00+6зюз61090100 0.1 1015517
02:00+6зюз6119278 0.0 1016646
05:00+5зюз499633 0.0 1018272
08:00+7юз5888100 0.0 1019321
11:00+9юз7128275 0.1 1018792
14:00+14юз9146276 0.3 10171646
17:00+13зюз9145791 0.8 10181496
20:00+10зюз611605 0.0 1019306
26 апреля, пн
пн2623:00+7зюз5117151 0.0 1021245
02:00+5зюз477799 0.0 1022142
05:00+5зюз3376100 0.0 102236
08:00+7юз2372100 0.0 1024166
11:00+10зюз245799 0.0 1023931
14:00+12ююз565782 0.1 10221228
17:00+10ю4481100 1.3 1022495
20:00+9в61186100 1.1 1018432
27 апреля, вт
вт2723:00+10вюв91778100 1.1 1016611
02:00+11ююв101964100 0.0 1012478
05:00+13ю112253100 0.0 1009500
08:00+13ююв8175197 0.0 1006462
11:00+19ююз91440100 0.0 10041035
14:00+19зюз81144100 0.0 10041039
17:00+18з6860100 0.1 1004865
20:00+13з81279100 0.0 1006707